Sylvania, GA

2:00 AM EDT on April 24, 2018 (GMT -0400)
Plantation

Weather History for KJYL - February, 2013

Change the Weather History Date:

Tuesday, February 5, 2013

  Actual Average (KSAV) Record (KSAV)
Temperature  
Mean Temperature 52 °F -  
Max Temperature 71 °F 59 °F 82 °F (1957)
Min Temperature 34 °F 38 °F 15 °F (1917)
Degree Days  
Heating Degree Days 13    
Growing Degree Days 2 (Base 50)    
Moisture  
Dew Point 45 °F    
Average Humidity 80    
Maximum Humidity 100    
Minimum Humidity 48    
Precipitation  
Precipitation 0.00 in - - ()
Sea Level Pressure  
Sea Level Pressure 30.03 in    
Wind  
Wind Speed 2 mph (West)    
Max Wind Speed 13 mph    
Max Gust Speed 24 mph    
Visibility 10 miles    
Events      
Averages and records for this station are not official NWS values.
T = Trace of Precipitation, MM = Missing Value Source: NWS Daily Summary

Daily Weather History Graph

Daily Weather History Graph

Search for Another Location

Airport or City:

Astronomy

Feb. 05, 2013 Rise Set
Actual Time 7:17 AM EST 6:03 PM EST
Civil Twilight 6:52 AM EST 6:28 PM EST
Nautical Twilight 6:23 AM EST 6:58 PM EST
Astronomical Twilight 5:54 AM EST 7:27 PM EST
Moon 2:52 AM EST (2/5) 1:25 PM EST (2/5)
Length of Visible Light 11h 36m
Length of Day
10h 45m
Waning Crescent, 27% of the Moon is Illuminated
Feb 5
Waning Crescent
Feb 10
New
Feb 17
First Quarter
Feb 25
Full
Mar 4
Last Quarter

Hourly Weather History & Observations

Time (EST) Temp. Dew Point Humidity Pressure Visibility Wind Dir Wind Speed Gust Speed Precip Events Conditions
12:15 AM 36.7 °F 34.9 °F 93% 30.07 in 10.0 mi Calm Calm - N/A   Clear
12:35 AM 36.1 °F 34.9 °F 95% 30.06 in 10.0 mi Calm Calm - N/A   Clear
1:15 AM 35.1 °F 34.5 °F 98% 30.04 in 10.0 mi Calm Calm - N/A   Clear
1:35 AM 35.2 °F 34.3 °F 97% 30.05 in 10.0 mi Calm Calm - N/A   Clear
1:55 AM 34.7 °F 34.2 °F 98% 30.04 in 10.0 mi Calm Calm - N/A   Clear
2:15 AM 36.0 °F 35.8 °F 99% 30.04 in 10.0 mi Calm Calm - N/A   Clear
2:35 AM 35.6 °F 35.2 °F 99% 30.03 in 10.0 mi Calm Calm - N/A   Clear
2:55 AM 34.0 °F 33.8 °F 99% 30.03 in 10.0 mi Calm Calm - N/A   Clear
3:15 AM 34.7 °F 34.5 °F 99% 30.02 in 10.0 mi Calm Calm - N/A   Clear
3:35 AM 35.4 °F 35.2 °F 99% 30.02 in 10.0 mi Calm Calm - N/A   Clear
3:55 AM 36.5 °F 36.3 °F 99% 30.02 in 10.0 mi Calm Calm - N/A   Clear
4:15 AM 35.8 °F 35.6 °F 99% 30.03 in 10.0 mi Calm Calm - N/A   Clear
4:35 AM 36.5 °F 36.1 °F 99% 30.02 in 10.0 mi Calm Calm - N/A   Clear
4:55 AM 37.0 °F 36.9 °F 99% 30.02 in 10.0 mi Calm Calm - N/A   Clear
5:15 AM 37.8 °F 37.4 °F 99% 30.03 in 10.0 mi Calm Calm - N/A   Clear
5:35 AM 36.5 °F 36.1 °F 99% 30.02 in 10.0 mi Calm Calm - N/A   Clear
5:55 AM 36.7 °F 36.5 °F 99% 30.03 in 10.0 mi Calm Calm - N/A   Clear
6:15 AM 36.7 °F 36.5 °F 99% 30.03 in 10.0 mi Calm Calm - N/A   Clear
6:35 AM 36.5 °F 36.5 °F 100% 30.05 in 7.0 mi Calm Calm - N/A   Clear
6:55 AM 37.2 °F 37.0 °F 99% 30.06 in 10.0 mi Calm Calm - N/A   Clear
7:15 AM 37.4 °F 37.4 °F 100% 30.07 in 10.0 mi Calm Calm - N/A   Clear
7:35 AM 37.2 °F 37.2 °F 100% 30.06 in 10.0 mi Calm Calm - N/A   Clear
7:55 AM 37.8 °F 37.8 °F 100% 30.07 in 10.0 mi Calm Calm - N/A   Clear
8:15 AM 39.7 °F 39.6 °F 99% 30.07 in 10.0 mi Calm Calm - N/A   Clear
8:35 AM 42.4 °F 42.3 °F 99% 30.07 in 10.0 mi Calm Calm - N/A   Clear
8:55 AM 48.4 °F 44.6 °F 87% 30.09 in 10.0 mi Calm Calm - N/A   Clear
9:15 AM 50.5 °F 45.7 °F 83% 30.09 in 10.0 mi Calm Calm - N/A   Clear
9:35 AM 53.6 °F 47.7 °F 80% 30.09 in 10.0 mi West 3.5 mph - N/A   Clear
9:55 AM 56.3 °F 49.5 °F 78% 30.09 in 10.0 mi West 4.6 mph - N/A   Clear
10:15 AM 58.5 °F 50.7 °F 75% 30.09 in 10.0 mi West 5.8 mph - N/A   Clear
10:35 AM 60.8 °F 51.4 °F 71% 30.09 in 10.0 mi West 8.1 mph - N/A   Clear
11:15 AM 64.6 °F 51.4 °F 62% 30.07 in 10.0 mi West 8.1 mph - N/A   Mostly Cloudy
11:35 AM 65.7 °F 51.8 °F 61% 30.07 in 10.0 mi WSW 9.2 mph - N/A   Scattered Clouds
11:55 AM 65.3 °F 51.6 °F 61% 30.06 in 10.0 mi West 4.6 mph - N/A   Scattered Clouds
12:15 PM 65.7 °F 51.8 °F 61% 30.06 in 10.0 mi West 8.1 mph 18.4 mph N/A   Mostly Cloudy
12:35 PM 66.6 °F 52.0 °F 59% 30.05 in 10.0 mi WNW 9.2 mph 16.1 mph N/A   Mostly Cloudy
12:55 PM 67.5 °F 52.2 °F 58% 30.04 in 10.0 mi WNW 9.2 mph 24.2 mph N/A   Mostly Cloudy
1:15 PM 68.5 °F 52.0 °F 55% 30.02 in 10.0 mi WSW 8.1 mph - N/A   Scattered Clouds
1:35 PM 68.4 °F 51.4 °F 55% 30.01 in 10.0 mi WNW 10.4 mph - N/A   Scattered Clouds
1:55 PM 68.9 °F 51.1 °F 53% 30.00 in 10.0 mi West 5.8 mph - N/A   Scattered Clouds
2:15 PM 69.6 °F 51.1 °F 52% 30.00 in 10.0 mi West 9.2 mph - N/A   Scattered Clouds
2:35 PM 69.8 °F 50.5 °F 50% 29.99 in 10.0 mi West 6.9 mph - N/A   Mostly Cloudy
2:55 PM 70.7 °F 49.8 °F 48% 29.99 in 10.0 mi West 12.7 mph - N/A   Mostly Cloudy
3:15 PM 70.3 °F 49.6 °F 48% 29.99 in 10.0 mi WNW 10.4 mph - N/A   Mostly Cloudy
3:35 PM 70.0 °F 50.0 °F 49% 29.99 in 10.0 mi West 8.1 mph - N/A   Overcast
3:55 PM 70.9 °F 50.5 °F 48% 29.99 in 10.0 mi West 8.1 mph - N/A   Overcast
4:15 PM 70.7 °F 50.9 °F 49% 29.99 in 10.0 mi WNW 6.9 mph - N/A   Overcast
4:35 PM 70.7 °F 50.4 °F 48% 29.99 in 10.0 mi WSW 6.9 mph - N/A   Overcast
4:55 PM 70.7 °F 50.5 °F 49% 29.99 in 10.0 mi WNW 5.8 mph - N/A   Overcast
5:15 PM 70.2 °F 50.7 °F 50% 29.99 in 10.0 mi WNW 6.9 mph - N/A   Mostly Cloudy
5:35 PM 68.5 °F 50.4 °F 52% 29.98 in 10.0 mi WNW 4.6 mph - N/A   Clear
5:55 PM 66.2 °F 50.4 °F 57% 29.99 in 10.0 mi Calm Calm - N/A   Clear
6:15 PM 63.3 °F 50.0 °F 62% 29.99 in 10.0 mi Calm Calm - N/A   Clear
6:35 PM 59.9 °F 50.0 °F 70% 29.99 in 10.0 mi Calm Calm - N/A   Clear
6:55 PM 58.3 °F 50.5 °F 75% 30.00 in 10.0 mi Calm Calm - N/A   Clear
7:35 PM 56.5 °F 50.7 °F 81% 30.01 in 10.0 mi Calm Calm - N/A   Clear
7:55 PM 54.3 °F 49.3 °F 83% 30.01 in 10.0 mi Calm Calm - N/A   Clear
8:15 PM 52.9 °F 49.3 °F 88% 30.01 in 10.0 mi Calm Calm - N/A   Scattered Clouds
8:35 PM 52.9 °F 49.8 °F 89% 30.02 in 10.0 mi Calm Calm - N/A   Clear
8:55 PM 52.0 °F 49.1 °F 90% 30.03 in 10.0 mi Calm Calm - N/A   Clear
9:15 PM 52.2 °F 48.6 °F 88% 30.03 in 10.0 mi Calm Calm - N/A   Clear
9:35 PM 51.1 °F 48.7 °F 92% 30.03 in 10.0 mi Calm Calm - N/A   Clear
9:55 PM 51.8 °F 49.1 °F 90% 30.04 in 10.0 mi Calm Calm - N/A   Clear
10:15 PM 50.5 °F 48.2 °F 92% 30.04 in 10.0 mi SW 3.5 mph - N/A   Clear
10:35 PM 55.0 °F 50.9 °F 86% 30.04 in 10.0 mi WSW 3.5 mph - N/A   Clear
10:55 PM 53.1 °F 49.6 °F 88% 30.05 in 10.0 mi Calm Calm - N/A   Clear
11:15 PM 51.3 °F 48.9 °F 92% 30.05 in 10.0 mi Calm Calm - N/A   Clear
11:35 PM 50.0 °F 48.7 °F 95% 30.05 in 10.0 mi Calm Calm - N/A   Clear
11:55 PM 51.4 °F 49.5 °F 93% 30.05 in 10.0 mi Calm Calm - N/A   Clear